Location: Chevoux
(46.3801°N, 4.9476°E)
Time: 03:26:16
(UTC+00:00)

ISS - Pass Details

Date: 07 December 2021
Orbit: 413 x 422 km, 51.6° (Epoch: 22 January)

Event Time Altitude Azimuth Distance (km) Brightness Sun altitude
Rises 17:41:10 0° 290° (WNW) 2,383 1.0 -17.8°
Reaches altitude 10° 17:43:32 10° 276° (W) 1,512 0.1 -18.2°
Maximum altitude 17:46:18 23° 222° (SW) 937 -1.4 -18.6°
Drops below altitude 10° 17:49:03 10° 167° (SSE) 1,498 -1.0 -19.1°
Enters shadow 17:49:49 - 160° (SSE) 1,766 -0.7 -19.2°
